Location: Unspecified
(0.0000°N, 0.0000°E)
Time: 11:39:21
(UTC+00:00)

Vanguard 2 Rocket - Pass Details

Date: 11 October 2022
Orbit: 555 x 3321 km, 32.9° (Epoch: 29 November)

Event Time Altitude Azimuth Distance (km) Brightness Sun altitude
Rises 21:09:26 0° 288° (WNW) 7,303 12.0 -50.1°
Reaches altitude 10° 21:17:39 10° 305° (NW) 6,183 11.4 -52.1°
Maximum altitude 21:28:28 17° 340° (NNW) 5,121 10.6 -54.8°
Enters shadow 21:31:01 17° 350° (N) 5,006 10.5 -55.4°
